[[{"header":{"parameterUnit":"m.s-1","parameterCategory":1,"la1":30.2991,"la2":30.254,"lo1":-89.0895,"lo2":-89.0444,"dx":0.0017,"dy":0.0017,"nx":28,"ny":28,"refTime":"2023-01-30T15:00:00:Z","depth":0,"parameterNumber":2,"parameterNumberName":"U-component_of_WINDS"},"data":[0,0,0,0,0,0,0,0,0,0,0,0,0,0,0,0,0,0,0,0,0,0,0,0,0,0,0,0,0,0,0,0,0,0,0,0,0,0,0,0,0,0,0,0,0,0,0,0,0,0,0,0,0,0,0,0,0,0,-0.9291,-0.9292,0,-0.9341,-0.9342,-0.9342,-0.9349,-0.9349,-0.9348,-0.9348,-0.9401,-0.9403,-0.9405,0,0,0,0,0,0,0,0,0,0,0,0,0,-0.9204,-0.9206,-0.9291,-0.9292,-0.9292,-0.9341,-0.9342,-0.9343,-0.9349,-0.9349,-0.9348,-0.9347,-0.94,-0.9403,-0.9405,0,0,0,0,0,0,0,0,0,0,0,0,0,-0.9247,-0.9206,-0.9291,-0.9301,-0.9303,-0.9341,-0.9342,-0.9343,-0.9349,-0.9349,-0.9348,-0.9347,-0.94,-0.9402,-0.9405,-0.9437,0,0,-0.9414,-0.9415,0,0,0,0,0,0,0,0,-0.9245,-0.925,-0.9299,-0.9301,-0.9302,-0.9338,-0.9331,-0.9374,-0.9349,-0.9332,-0.9348,-0.9347,-0.9381,-0.9385,-0.9396,-0.944,-0.9442,-0.9414,-0.9416,-0.9417,-0.9418,0,0,0,0,0,0,0,-0.9242,-0.9248,-0.9311,-0.93,-0.9302,-0.9305,-0.931,-0.9339,-0.936,-0.9333,-0.9334,-0.934,-0.9381,-0.9393,-0.9397,-0.9443,-0.9414,-0.9416,-0.9418,-0.9419,-0.9518,-0.9519,0,0,0,0,0,0,-0.9236,-0.9246,-0.9309,-0.9312,-0.9271,-0.9307,-0.9313,-0.9327,-0.9359,-0.9364,-0.934,-0.934,-0.9389,-0.9394,-0.9399,-0.944,-0.9417,-0.9419,-0.9421,-0.9517,-0.9518,-0.9519,0,0,0,0,0,0,-0.9235,-0.9242,-0.9307,-0.9279,-0.9288,-0.9309,-0.9326,-0.9329,-0.9341,-0.9365,-0.9369,-0.9348,-0.9389,-0.9395,-0.9428,-0.9442,-0.9421,-0.9423,-0.9516,-0.9518,-0.9519,-0.9522,0,0,0,0,0,0,-0.9232,-0.9241,-0.9252,-0.9279,-0.9289,-0.9334,-0.9326,-0.933,-0.9345,-0.9345,-0.9373,-0.9377,-0.9389,-0.9424,-0.9431,-0.9446,-0.9425,-0.9515,-0.9517,-0.9518,-0.9521,-0.9523,-0.9525,0,0,0,0,0,-0.9229,-0.9251,-0.9253,-0.9261,-0.9303,-0.9335,-0.934,-0.9352,-0.9346,-0.9359,-0.9375,-0.9376,-0.944,-0.9427,-0.9435,-0.9451,-0.9514,-0.9516,-0.9518,-0.9519,-0.9523,-0.9525,0,0,0,0,0,0,-0.9225,-0.9255,-0.9257,-0.9288,-0.9309,-0.9336,-0.9351,-0.9355,-0.9378,-0.9377,-0.9392,-0.9398,-0.9431,-0.9444,-0.943,-0.9485,-0.9477,-0.948,-0.9475,-0.9478,-0.948,-0.9476,-0.9428,0,0,0,0,0,-0.9228,-0.925,-0.9275,-0.93,-0.931,-0.9329,-0.9343,-0.9351,-0.9373,-0.9382,-0.94,-0.9422,-0.9448,-0.9464,-0.9488,-0.9523,-0.9531,-0.9538,-0.9541,-0.9543,-0.9546,-0.9568,-0.9572,-0.9526,-0.9526,-0.9526,0,0,-0.9233,-0.9253,-0.9265,-0.93,-0.9317,-0.9341,-0.9336,-0.9361,-0.9379,-0.9386,-0.9418,-0.9433,-0.9459,-0.9493,-0.9509,-0.9506,-0.956,-0.9545,-0.9547,-0.9549,-0.957,-0.9575,-0.9578,-0.9528,-0.9528,-0.9527,0,0,-0.9256,-0.9272,-0.9296,-0.9314,-0.9339,-0.9352,-0.9358,-0.9385,-0.9395,-0.9428,-0.9434,-0.9457,-0.9499,-0.9518,-0.9533,-0.9567,-0.9571,-0.9575,-0.9588,-0.9609,-0.9612,-0.9616,-0.9629,-0.9633,-0.9578,-0.9578,-0.9578,0,-0.926,-0.9295,-0.9308,-0.9333,-0.9349,-0.9357,-0.9382,-0.9399,-0.9431,-0.9443,-0.9439,-0.9494,-0.9512,-0.9552,-0.9561,-0.9573,-0.9581,-0.9571,-0.9611,-0.9614,-0.9617,-0.963,-0.9635,-0.9579,-0.9579,-0.9579,-0.9579,0,-0.93,-0.9324,-0.9341,-0.9372,-0.939,-0.9415,-0.9433,-0.9451,-0.9458,-0.9472,-0.9507,-0.9529,-0.9559,-0.957,-0.9576,-0.9612,-0.9609,-0.9608,-0.9599,-0.9622,-0.9634,-0.9639,-0.9579,-0.9579,-0.9579,-0.9579,0,0,-0.9319,-0.9359,-0.9365,-0.9381,-0.9411,-0.9431,-0.9458,-0.9487,-0.9503,-0.9526,-0.955,-0.9587,-0.9587,-0.9605,-0.9614,-0.9633,-0.9661,-0.963,-0.9631,-0.9635,-0.9703,-0.9704,-0.9709,-0.9664,-0.9665,-0.9665,-0.9701,0,-0.9346,-0.9392,-0.9406,-0.9446,-0.947,-0.9479,-0.9503,-0.9526,-0.954,-0.9564,-0.9581,-0.9608,-0.9605,-0.9616,-0.9635,-0.9653,-0.9674,-0.9651,-0.9687,-0.9688,-0.968,-0.9715,-0.9716,-0.9748,-0.9706,-0.9707,-0.9707,0,-0.9382,-0.9407,-0.9449,-0.9479,-0.949,-0.951,-0.954,-0.9562,-0.9589,-0.9599,-0.962,-0.9628,-0.9659,-0.965,-0.9693,-0.9677,-0.9693,-0.9705,-0.9707,-0.971,-0.9699,-0.972,-0.9759,-0.9764,-0.9715,-0.9714,-0.9714,0,-0.9394,-0.9437,-0.9468,-0.9481,-0.9517,-0.9531,-0.9547,-0.9573,-0.9591,-0.9618,-0.963,-0.966,-0.9676,-0.97,-0.9718,-0.9709,-0.976,-0.9752,-0.977,-0.977,-0.978,-0.9779,-0.9822,-0.979,-0.979,-0.979,-0.979,0,-0.9422,-0.9447,-0.9474,-0.9493,-0.9523,-0.954,-0.957,-0.9586,-0.961,-0.9634,-0.9645,-0.9668,-0.9689,-0.9716,-0.973,-0.9765,-0.9772,-0.9782,-0.9786,-0.9781,-0.978,-0.9791,-0.979,-0.9791,-0.9791,-0.9791,-0.9791,0,-0.9438,-0.9457,-0.9492,-0.9523,-0.9532,-0.9553,-0.9581,-0.9601,-0.9617,-0.9648,-0.9656,-0.9682,-0.9714,-0.9734,-0.9774,-0.9784,-0.9823,-0.9825,-0.9813,-0.9815,-0.9832,-0.9831,-0.9884,-0.9892,-0.9855,-0.9856,-0.9856,0,-0.9455,-0.9475,-0.9509,-0.9526,-0.9542,-0.9568,-0.9587,-0.9605,-0.9625,-0.9658,-0.9675,-0.9708,-0.9734,-0.9785,-0.9809,-0.984,-0.9844,-0.9861,-0.9849,-0.9845,-0.9845,-0.9844,-0.9847,-0.9862,-0.9863,-0.9863,-0.9863,0,-0.9483,-0.9492,-0.9517,-0.9547,-0.9569,-0.9594,-0.9618,-0.9632,-0.9655,-0.9677,-0.9709,-0.973,-0.9772,-0.9805,-0.984,-0.9858,-0.9865,-0.9867,-0.9873,-0.9868,-0.9861,-0.9866,-0.9819,-0.9865,-0.9865,-0.9865,-0.9865,-0.9865,-0.9501,-0.952,-0.9547,-0.9576,-0.9597,-0.962,-0.9641,-0.9661,-0.9688,-0.9723,-0.9733,-0.9768,-0.9798,-0.9845,-0.9864,-0.9892,-0.989,-0.9899,-0.9901,-0.9903,-0.9903,-0.9857,-0.9899,-0.9899,-0.9899,-0.9899,-0.9899,0,-0.953,-0.9549,-0.9575,-0.9609,-0.9633,-0.9638,-0.9666,-0.9686,-0.9716,-0.9742,-0.9769,-0.9808,-0.9841,-0.9868,-0.9902,-0.992,-0.9925,-0.9929,-0.9927,-0.9932,-0.9903,-0.9894,-0.9924,-0.9924,-0.9924,-0.9924,-0.9924,-0.9924,-0.9548,-0.9581,-0.9594,-0.9638,-0.9657,-0.969,-0.9706,-0.9729,-0.975,-0.9793,-0.982,-0.9837,-0.9865,-0.9902,-0.9933,-0.994,-0.9953,-0.9956,-0.9964,-0.9936,-0.9934,-0.9931,-0.9923,-0.9959,-0.9959,-0.9991,-0.9991,-0.9992]},{"header":{"parameterUnit":"m.s-1","parameterCategory":1,"la1":30.2991,"la2":30.254,"lo1":-89.0895,"lo2":-89.0444,"dx":0.0017,"dy":0.0017,"nx":28,"ny":28,"refTime":"2023-01-30T15:00:00:Z","depth":0,"parameterNumber":3,"parameterNumberName":"V-component_of_WINDS"},"data":[0,0,0,0,0,0,0,0,0,0,0,0,0,0,0,0,0,0,0,0,0,0,0,0,0,0,0,0,0,0,0,0,0,0,0,0,0,0,0,0,0,0,0,0,0,0,0,0,0,0,0,0,0,0,0,0,0,0,1.8143,1.8143,0,1.8107,1.8107,1.8107,1.8078,1.8077,1.8077,1.8077,1.804,1.8039,1.8038,0,0,0,0,0,0,0,0,0,0,0,0,0,1.8186,1.8186,1.8143,1.8143,1.8142,1.8107,1.8107,1.8106,1.8078,1.8077,1.8077,1.8077,1.804,1.8039,1.8038,0,0,0,0,0,0,0,0,0,0,0,0,0,1.8161,1.8185,1.8143,1.8124,1.8121,1.8108,1.8107,1.8106,1.8078,1.8077,1.8077,1.8076,1.804,1.8039,1.8038,1.8041,0,0,1.8035,1.8035,0,0,0,0,0,0,0,0,1.8162,1.8159,1.8127,1.8125,1.8123,1.8096,1.8109,1.8084,1.8078,1.8094,1.8077,1.8076,1.8059,1.8056,1.8051,1.8039,1.8037,1.8035,1.8034,1.8034,1.8034,0,0,0,0,0,0,0,1.8164,1.8161,1.8129,1.8126,1.8124,1.8117,1.8113,1.8104,1.808,1.8093,1.8091,1.8087,1.8058,1.8052,1.805,1.8037,1.8035,1.8034,1.8033,1.8033,1.8026,1.8026,0,0,0,0,0,0,1.8169,1.8162,1.813,1.8128,1.8142,1.8116,1.8112,1.8105,1.808,1.8075,1.8087,1.8086,1.8054,1.8051,1.8048,1.805,1.8034,1.8033,1.8032,1.8026,1.8026,1.8027,0,0,0,0,0,0,1.817,1.8166,1.8131,1.8144,1.8139,1.8116,1.8109,1.8105,1.8099,1.8075,1.8071,1.8086,1.8053,1.805,1.8043,1.8048,1.8032,1.8031,1.8025,1.8026,1.8026,1.8053,0,0,0,0,0,0,1.8171,1.8167,1.8167,1.8145,1.8139,1.8127,1.8109,1.8104,1.8097,1.8095,1.8073,1.8069,1.8053,1.8045,1.8042,1.8046,1.8031,1.8024,1.8025,1.8026,1.8052,1.8055,1.8057,0,0,0,0,0,1.8173,1.8176,1.8167,1.8164,1.8139,1.8127,1.8124,1.8106,1.8098,1.8098,1.8083,1.8069,1.8048,1.8044,1.8041,1.8045,1.8024,1.8025,1.8026,1.805,1.8054,1.8057,0,0,0,0,0,0,1.8199,1.8173,1.8163,1.8159,1.8146,1.8122,1.8122,1.811,1.8098,1.8097,1.8074,1.807,1.8066,1.8054,1.8051,1.8047,1.8034,1.8035,1.8054,1.8057,1.806,1.8063,1.803,0,0,0,0,0,1.8205,1.8198,1.8174,1.8173,1.8167,1.8146,1.814,1.8127,1.8112,1.8107,1.8091,1.8077,1.8068,1.8062,1.8051,1.805,1.8045,1.8051,1.8054,1.8056,1.8057,1.8056,1.8059,1.803,1.803,1.803,0,0,1.8216,1.82,1.8197,1.8178,1.8166,1.8159,1.8141,1.8134,1.8129,1.8105,1.8098,1.8087,1.807,1.8066,1.8064,1.8057,1.8064,1.8058,1.806,1.8059,1.8058,1.806,1.8063,1.8031,1.8031,1.803,0,0,1.8233,1.822,1.8218,1.8206,1.8189,1.8175,1.8175,1.8154,1.8145,1.8138,1.812,1.8114,1.8097,1.8086,1.8078,1.8092,1.8079,1.8089,1.8104,1.8103,1.8105,1.8107,1.8113,1.8115,1.809,1.809,1.809,0,1.8249,1.8237,1.8218,1.8213,1.8205,1.8184,1.8182,1.8172,1.8152,1.8147,1.814,1.8119,1.8106,1.81,1.8104,1.8098,1.8097,1.8092,1.8107,1.8108,1.811,1.8115,1.8117,1.8091,1.8091,1.8091,1.8091,0,1.8258,1.8251,1.8251,1.8233,1.8225,1.8222,1.8202,1.8197,1.8185,1.8172,1.8165,1.8149,1.8135,1.8133,1.8121,1.8125,1.8122,1.8111,1.8098,1.8114,1.8119,1.8121,1.8093,1.8093,1.8092,1.8092,0,0,1.829,1.8262,1.8263,1.8255,1.8234,1.8228,1.8224,1.8211,1.8207,1.8194,1.819,1.8177,1.8167,1.8159,1.8145,1.8145,1.8158,1.8134,1.8133,1.814,1.8162,1.8171,1.8174,1.8149,1.8149,1.8149,1.8164,0,1.8304,1.8295,1.8278,1.8274,1.8268,1.8248,1.8244,1.8231,1.8219,1.8212,1.8198,1.819,1.8177,1.8172,1.8171,1.8156,1.8162,1.8155,1.8145,1.8145,1.8151,1.8176,1.8185,1.82,1.8166,1.8166,1.8166,0,1.8319,1.8308,1.8304,1.8285,1.8281,1.8278,1.8266,1.8259,1.8244,1.8235,1.8226,1.8212,1.8207,1.8195,1.8187,1.8183,1.8178,1.8171,1.8171,1.817,1.8157,1.8176,1.8204,1.8207,1.8169,1.8168,1.8168,0,1.8344,1.8328,1.8324,1.8317,1.8295,1.8293,1.8284,1.8268,1.8262,1.8251,1.8247,1.8235,1.8229,1.822,1.8204,1.8196,1.8198,1.8185,1.8192,1.8192,1.8193,1.8193,1.8221,1.8189,1.8189,1.8189,1.8189,0,1.8362,1.836,1.8335,1.8332,1.833,1.831,1.8309,1.8298,1.8285,1.828,1.8262,1.8257,1.8235,1.8228,1.8215,1.8212,1.8209,1.8202,1.8198,1.8204,1.8205,1.8201,1.82,1.8189,1.8189,1.8189,1.8189,0,1.8389,1.8372,1.8366,1.8345,1.834,1.834,1.8322,1.8319,1.8306,1.83,1.8298,1.8278,1.8269,1.8251,1.8238,1.8229,1.8229,1.8222,1.8234,1.8232,1.824,1.824,1.8266,1.8269,1.8235,1.8235,1.8235,0,1.8402,1.84,1.838,1.8375,1.8367,1.836,1.8353,1.8334,1.8328,1.8312,1.8311,1.8301,1.8292,1.828,1.8264,1.8254,1.8247,1.8257,1.8245,1.8251,1.8248,1.8249,1.8249,1.826,1.8261,1.8261,1.8261,0,1.8427,1.8418,1.841,1.8399,1.8392,1.8382,1.8371,1.8369,1.8347,1.8342,1.8333,1.8326,1.8313,1.8303,1.8291,1.8281,1.8268,1.8265,1.8266,1.8272,1.828,1.8277,1.8242,1.8265,1.8264,1.8264,1.8264,1.8264,1.8447,1.8446,1.8431,1.8423,1.8413,1.8403,1.84,1.8387,1.8379,1.8367,1.8356,1.8349,1.8335,1.8317,1.8308,1.8302,1.8296,1.8297,1.8297,1.8298,1.8301,1.828,1.83,1.83,1.8299,1.8299,1.8299,0,1.8472,1.8462,1.8454,1.844,1.8434,1.8422,1.841,1.8405,1.8399,1.8387,1.8379,1.8369,1.8361,1.8344,1.8334,1.8333,1.8327,1.8331,1.8331,1.8329,1.8307,1.8308,1.8336,1.8336,1.8336,1.8336,1.8336,1.8336,1.8484,1.8481,1.8471,1.8463,1.8452,1.8445,1.8439,1.8431,1.8421,1.8412,1.8404,1.8394,1.8381,1.837,1.8361,1.8357,1.8354,1.8361,1.8355,1.8334,1.8331,1.8327,1.8328,1.836,1.836,1.8377,1.8377,1.8378]}]]